Notices

What's New in latest Release from April 7th, 2021:

- Updated Glossary, including Speed of Maximum Gust, and Total Hourly Precipitation

- Updated national and regional climate services offices contacts and prices information

- Addition of station inventory lists for 1981-2010, 1971-2000, and 1961-1990 Normals.

If you haven't already, please take our survey and provide feedback about our website: https://eccc.sondage-survey.ca/f/LanguageSelection.aspx?s=442ca660-fcf1-47c0-95a9-59707d6fd709

Hourly Data Report for April 24, 2021

CLYDE RIVER A
NUNAVUT
Current Station Operator: NAVCAN

70°29'09.000" N
68°31'01.000" W
26.50 m
2400804
71090
YCY

Download Data

Hourly Data (April 2021)
Hourly Data Report for April 24, 2021
TIME
LST
Temp Definition
°C
Dew Point Definition
°C
Rel Hum Definition
%
Precip. Amount Definition
mm

Wind Dir Definition
10's deg

Wind Spd Definition
km/h
Visibility Definition
km
Stn Press Definition
kPa
Hmdx Definition


Wind Chill Definition


Weather Definition


00:00 -15.6 -16.6 92 0.0 33 8 1.6 101.48   -21 Fog
01:00 -13.5 -14.3 94 0.0 4 8 0.6 101.51   -19 Freezing Fog
02:00 -13.6 -14.4 94 0.0 2 4 0.4 101.53   -16 Freezing Fog
03:00 -13.5 -14.4 93 0.0 10 13 1.2 101.54   -20 Fog
04:00 -13.8 -14.7 93 0.0 9 13 1.2 101.56   -21 Fog
05:00 -13.4 -14.3 93 0.0 12 18 11.3 101.59   -22 Snow
06:00 -13.8 -14.9 92 0.0 25 8 16.1 101.61   -19 LegendNANA
07:00 -12.4 -13.2 94 0.0   0 16.1 101.62     LegendNANA
08:00 -10.1 -10.8 95 0.0 12 15 1.2 101.65   -17 Snow
09:00 -10.3 -11.0 95 0.0 13 9 16.1 101.66   -15 LegendNANA
10:00 -9.7 -10.2 96 0.0 14 9 16.1 101.66   -15 LegendNANA
11:00 -9.1 -9.6 96 0.0 14 9 16.1 101.64   -14 LegendNANA
12:00 -8.9 -9.4 96 0.0 12 8 16.1 101.63   -13 LegendNANA
13:00 -8.4 -8.8 97 0.0 14 15 16.1 101.63   -15 LegendNANA
14:00 -7.6 -7.9 98 0.0 14 15 16.1 101.59   -14 LegendNANA
15:00 -7.3 -7.6 98 0.0 13 28 14.5 101.61   -16 LegendNANA
16:00 -7.5 -7.8 98 0.0 12 22 16.1 101.61   -15 LegendNANA
17:00 -8.2 -8.6 97 0.0 14 21 16.1 101.62   -16 LegendNANA
18:00 -7.8 -8.1 98 0.0 13 17 4.8 101.64   -14 Fog
19:00 -8.3 -8.7 97 0.0 11 5 4.8 101.64   -11 Fog
20:00 -8.5 -8.9 97 0.0 13 5 0.2 101.64   -11 Freezing Fog
21:00 -8.9 -9.3 97 0.0 13 9 0.0 101.62   -14 Freezing Fog
22:00 -10.0 -10.5 96 0.0 12 13 0.2 101.60   -16 Freezing Fog
23:00 -10.9 -11.6 95 0.0 12 11 0.4 101.59   -17 Freezing Fog

Notes on Data Quality.

Legend

  • E = Estimated
  • M = Missing
  • NA = Not Available*
  • [empty] = Indicates an unobserved value
Date modified: